Wakefield, VA

1:20 AM EST on December 13, 2019 (GMT -0500)
Wakefield Municipal

Weather History for KAKQ - October, 2019

Change the Weather History Date:

Monday, October 14, 2019

  Actual Average (WUND) Record (WUND)
Temperature  
Mean Temperature 64 °F -  
Max Temperature 75 °F - - (-1)
Min Temperature 53 °F - - (-1)
Degree Days  
Heating Degree Days 1    
Growing Degree Days 14 (Base 50)    
Moisture  
Dew Point 60 °F    
Average Humidity 88    
Maximum Humidity 94    
Minimum Humidity 53    
Precipitation  
Precipitation 0.03 in - - ()
Sea Level Pressure  
Sea Level Pressure 30.02 in    
Wind  
Wind Speed 1 mph (West)    
Max Wind Speed 6 mph    
Max Gust Speed -    
Visibility 6 miles    
Events Fog , Rain    
Averages and records for this station are not official NWS values.
T = Trace of Precipitation, MM = Missing Value Source: NWS Daily Summary

Daily Weather History Graph

Daily Weather History Graph

Search for Another Location

Airport or City:

Astronomy

Oct. 14, 2019 Rise Set
Actual Time 7:14 AM EDT 6:32 PM EDT
Civil Twilight 6:48 AM EDT 6:59 PM EDT
Nautical Twilight 6:18 AM EDT 7:29 PM EDT
Astronomical Twilight 5:48 AM EDT 7:59 PM EDT
Moon 7:22 PM EDT (10/14) 7:44 AM EDT (10/14)
Length of Visible Light 12h 10m
Length of Day
11h 18m
Waxing Gibbous, 99% of the Moon is Illuminated
Oct 14
Waxing Gibbous
Oct 21
Last Quarter
Oct 27
New
Nov 4
First Quarter
Nov 12
Full

Hourly Weather History & Observations

Time (EDT) Temp. Dew Point Humidity Pressure Visibility Wind Dir Wind Speed Gust Speed Precip Events Conditions
12:54 AM 66.0 °F 64.0 °F 93% 29.99 in 8.0 mi Calm Calm - 0.03 in   Overcast
1:03 AM 66.0 °F 64.0 °F 93% 29.98 in 7.0 mi Calm Calm - N/A   Overcast
1:32 AM 66.9 °F 64.0 °F 90% 29.97 in 10.0 mi SSW 3.5 mph - N/A   Overcast
1:45 AM 66.9 °F 64.9 °F 93% 29.97 in 10.0 mi South 3.5 mph - N/A   Overcast
1:54 AM 66.9 °F 64.9 °F 93% 29.97 in 9.0 mi Calm Calm - N/A   Overcast
2:31 AM 66.9 °F 64.9 °F 93% 29.96 in 7.0 mi Calm Calm - N/A   Overcast
2:54 AM 66.9 °F 64.9 °F 93% 29.96 in 7.0 mi Calm Calm - N/A   Overcast
3:05 AM 66.9 °F 64.9 °F 93% 29.95 in 8.0 mi Calm Calm - N/A   Overcast
3:18 AM 66.9 °F 64.9 °F 93% 29.95 in 7.0 mi Calm Calm - N/A   Overcast
3:31 AM 66.9 °F 64.9 °F 93% 29.95 in 5.0 mi Calm Calm - N/A   Overcast
3:54 AM 66.9 °F 64.9 °F 93% 29.95 in 6.0 mi Calm Calm - N/A   Overcast
4:28 AM 66.9 °F 64.9 °F 93% 29.94 in 5.0 mi Calm Calm - 0.00 in   Overcast
4:54 AM 66.9 °F 64.9 °F 93% 29.95 in 5.0 mi Calm Calm - 0.00 in   Overcast
5:41 AM 66.9 °F 64.9 °F 93% 29.96 in 5.0 mi Calm Calm - 0.00 in   Overcast
5:54 AM 66.9 °F 64.9 °F 93% 29.98 in 3.0 mi Calm Calm - 0.00 in   Overcast
6:02 AM 66.9 °F 64.0 °F 90% 29.98 in 2.5 mi Calm Calm - N/A   Overcast
6:24 AM 66.0 °F 64.0 °F 93% 29.99 in 5.0 mi Calm Calm - N/A   Overcast
6:36 AM 66.0 °F 64.0 °F 93% 29.99 in 6.0 mi Calm Calm - N/A   Overcast
6:54 AM 66.0 °F 64.0 °F 93% 30.00 in 7.0 mi Calm Calm - N/A   Overcast
7:06 AM 66.0 °F 64.0 °F 93% 30.01 in 6.0 mi WNW 3.5 mph - N/A   Overcast
7:11 AM 66.0 °F 64.0 °F 93% 30.01 in 6.0 mi WNW 3.5 mph - N/A   Overcast
7:25 AM 64.9 °F 63.0 °F 93% 30.02 in 5.0 mi NW 4.6 mph - N/A   Overcast
7:50 AM 64.4 °F 62.6 °F 94% 30.02 in 2.5 mi Calm Calm - 0.00 in   Overcast
7:54 AM 64.9 °F 63.0 °F 93% 30.02 in 2.0 mi NW 3.5 mph - 0.00 in   Overcast
8:04 AM 64.0 °F 62.1 °F 93% 30.02 in 1.2 mi Variable 3.5 mph - N/A   Overcast
8:19 AM 64.0 °F 62.1 °F 93% 30.03 in 3.0 mi Variable 3.5 mph - N/A   Overcast
8:38 AM 64.0 °F 62.1 °F 93% 30.04 in 2.0 mi WNW 4.6 mph - 0.00 in Rain Light Rain
8:47 AM 64.0 °F 62.1 °F 93% 30.04 in 2.5 mi WNW 4.6 mph - 0.00 in   Overcast
8:54 AM 64.9 °F 62.1 °F 90% 30.04 in 3.0 mi WNW 4.6 mph - 0.00 in   Overcast
9:09 AM 64.9 °F 62.1 °F 90% 30.05 in 5.0 mi Calm Calm - N/A   Overcast
9:25 AM 64.9 °F 62.1 °F 90% 30.05 in 7.0 mi Calm Calm - N/A   Overcast
9:54 AM 66.0 °F 62.1 °F 87% 30.06 in 10.0 mi Calm Calm - N/A   Overcast
10:02 AM 66.0 °F 62.1 °F 87% 30.06 in 10.0 mi NW 3.5 mph - N/A   Overcast
10:32 AM 64.9 °F 61.0 °F 87% 30.06 in 10.0 mi West 3.5 mph - N/A   Overcast
10:54 AM 66.0 °F 61.0 °F 84% 30.07 in 10.0 mi West 3.5 mph - N/A   Overcast
11:54 AM 66.0 °F 59.0 °F 78% 30.05 in 10.0 mi SW 5.8 mph - N/A   Overcast
12:54 PM 66.0 °F 59.0 °F 78% 30.05 in 10.0 mi WSW 4.6 mph - N/A   Overcast
1:54 PM 72.0 °F 61.0 °F 68% 30.02 in 10.0 mi Variable 3.5 mph - N/A   Mostly Cloudy
2:09 PM 69.1 °F 57.9 °F 68% 30.02 in 10.0 mi Calm Calm - N/A   Scattered Clouds
2:54 PM 71.1 °F 57.9 °F 63% 30.00 in 10.0 mi SSW 3.5 mph - N/A   Clear
3:54 PM 73.9 °F 59.0 °F 59% 30.00 in 10.0 mi Variable 4.6 mph - N/A   Clear
4:54 PM 75.0 °F 57.0 °F 53% 29.99 in 10.0 mi WSW 4.6 mph - N/A   Clear
5:54 PM 73.0 °F 59.0 °F 61% 30.00 in 10.0 mi Calm Calm - N/A   Clear
6:54 PM 64.0 °F 60.1 °F 87% 30.01 in 10.0 mi Calm Calm - N/A   Clear
7:54 PM 61.0 °F 57.9 °F 90% 30.03 in 7.0 mi Calm Calm - N/A   Clear
8:30 PM 60.1 °F 57.0 °F 90% 30.03 in 0.8 mi Calm Calm - N/A   Clear
8:52 PM 57.2 °F 55.4 °F 94% 30.03 in 1.2 mi Calm Calm - N/A   Clear
8:54 PM 57.9 °F 55.9 °F 93% 30.04 in 0.8 mi Calm Calm - N/A   Clear
9:05 PM 57.9 °F 55.9 °F 93% 30.04 in 0.5 mi Calm Calm - N/A Fog Fog
9:09 PM 57.9 °F 55.0 °F 90% 30.04 in 2.0 mi Calm Calm - N/A   Clear
9:16 PM 57.9 °F 55.0 °F 90% 30.04 in 5.0 mi Calm Calm - N/A   Clear
9:42 PM 57.0 °F 55.0 °F 93% 30.05 in 1.5 mi Calm Calm - N/A   Clear
9:54 PM 57.0 °F 54.0 °F 89% 30.06 in 3.0 mi Calm Calm - N/A   Clear
10:20 PM 55.9 °F 53.1 °F 90% 30.06 in 1.8 mi Calm Calm - N/A   Clear
10:28 PM 55.0 °F 53.1 °F 93% 30.06 in 3.0 mi Calm Calm - N/A   Clear
10:44 PM 55.0 °F 52.0 °F 89% 30.07 in 1.8 mi Calm Calm - N/A   Clear
10:54 PM 55.0 °F 52.0 °F 89% 30.07 in 4.0 mi Calm Calm - N/A   Clear
10:59 PM 54.0 °F 52.0 °F 93% 30.07 in 1.5 mi Calm Calm - N/A   Clear
11:09 PM 54.0 °F 52.0 °F 93% 30.06 in 0.5 mi Calm Calm - N/A Fog Fog
11:30 PM 54.0 °F 51.1 °F 90% 30.06 in 2.0 mi Calm Calm - N/A   Clear
11:37 PM 53.1 °F 51.1 °F 93% 30.07 in 10.0 mi Calm Calm - N/A   Clear
11:54 PM 53.1 °F 50.0 °F 89% 30.07 in 9.0 mi Calm Calm - N/A   Clear